Regional Weather Roundup
Issued by NWS

Home | Current Version | Previous Version | Text Only | Print | Product List | Glossary On
Versions: 1 2 3 4 5 6 7 8 9 10 11 12 13 14 15 16 17 18 19 20 21 22 23 24 25 26 27 28 29 30 31 32 33 34 35 36 37 38 39 40 41 42 43 44 45 46 47 48 49 50
000
ASUS43 KBIS 111231
RWRND
NORTH DAKOTA REGIONAL WEATHER ROUNDUP
NATIONAL WEATHER SERVICE EASTERN NORTH DAKOTA/GRAND FORKS ND
600 AM CST THU FEB 11 2016

  NOTE: "FAIR" INDICATES FEW OR NO CLOUDS BELOW 12,000 FEET WITH NO
  SIGNIFICANT WEATHER AND/OR OBSTRUCTIONS TO VISIBILITY.

NDZ001>003-009>011-017-111300-
...NORTHWEST NORTH DAKOTA...

CITY           SKY/WX    TMP DP  RH WIND       PRES   REMARKS
WILLISTON      LGT SNOW  24  21  88 E6        30.07R FOG     WCI  17
6HR MIN TEMP:  24; 6HR MAX TEMP:  26; 6HR PCP:  0.04;

MINOT          CLOUDY    14   7  73 E6        30.13F WCI   5
MINOT AFB      CLOUDY    12   9  85 SE7       30.13S WCI   2
6HR MIN TEMP:  10; 6HR MAX TEMP:  12;

$$

NDZ018>021-031>035-040>046-111300-
...SOUTHWEST NORTH DAKOTA...

CITY           SKY/WX    TMP DP  RH WIND       PRES   REMARKS
BISMARCK       LGT SNOW  19  13  77 SE8       30.14F WCI   9
DICKINSON      LGT SNOW  25  23  92 E6        29.99F VSB 1   WCI  18
GARRISON         N/A     15  12  88 SE5       30.10S WCI   8
HETTINGER      LGT SNOW  29  27  92 S7        30.03S FOG     WCI  22
$$

NDZ004>008-012>016-024-026-027-054-111300-
...NORTHEAST NORTH DAKOTA...

CITY           SKY/WX    TMP DP  RH WIND       PRES   REMARKS
GRAND FORKS    CLOUDY     5  -1  76 SE5       30.28F WCI  -4
GRAND FORKS AF CLOUDY     5   0  78 SE5       30.27F WCI  -4
DEVILS LAKE    FLURRIES   5   2  87 SE3       30.19F
$$

NDZ022-023-025-028>030-036>039-047>053-111300-
...SOUTHEAST NORTH DAKOTA...

CITY           SKY/WX    TMP DP  RH WIND       PRES   REMARKS
JAMESTOWN      CLOUDY     7   2  80 SE5       30.19S WCI  -2
FARGO          CLOUDY     5  -1  76 NE3       30.28F
WAHPETON       CLOUDY     1  -4  78 CALM      30.29S
$$



USA.gov is the U.S. government's official web portal to all federal, state and local government web resources and services.